Regional Weather Roundup
Issued by NWS

Home | Current Version | Previous Version | Text Only | Print | Product List | Glossary Off
Versions: 1 2 3 4 5 6 7 8 9 10 11 12 13 14 15 16 17 18 19 20 21 22 23 24 25 26 27 28 29 30 31 32 33 34 35 36 37 38 39 40 41 42 43 44 45 46 47 48 49 50

181
ASUS43 KFSD 220402
RWRSD

WEATHER ROUNDUP FOR SOUTH DAKOTA
NATIONAL WEATHER SERVICE SIOUX FALLS SD
1100 PM CDT MON MAY 21 2018

NOTE: "FAIR" INDICATES FEW OR NO CLOUDS BELOW 12,000 FEET WITH NO
SIGNIFICANT WEATHER AND/OR OBSTRUCTIONS TO VISIBILITY.


SDZ001>005-009-010-012>017-220500-
NORTHWEST AND NORTH CENTRAL SOUTH DAKOTA

CITY           SKY/WX    TMP DP  RH WIND       PRES   REMARKS
BUFFALO          N/A     61  49  64 SE13      29.86R
FAITH            N/A     59  47  64 E9        29.92S
MOBRIDGE       CLEAR     56  47  71 CALM      29.90S
$$

SDZ012>016-024>037-041>051-057-063-072>074-220500-
SOUTHWEST AND SOUTH CENTRAL SOUTH DAKOTA

CITY           SKY/WX    TMP DP  RH WIND       PRES   REMARKS
RAPID CTY ARPT CLOUDY    60  51  72 S3        29.93R
PIERRE         CLEAR     59  51  75 E6        29.91R
CUSTER         CLOUDY    56  47  71 W5        30.06R
ELLSWORTH AFB  CLOUDY    63  54  72 CALM      29.93R
PHILIP         CLEAR     58  55  90 E7        29.91R
PINE RIDGE     CLOUDY    62  54  74 E3        29.95R
SPEARFISH      FAIR      63  52  67 CALM      29.95R
WINNER         FAIR      63  54  72 S8        29.94R
$$

SDZ004>011-016>023-039-040-220500-
NORTHEAST SOUTH DAKOTA

CITY           SKY/WX    TMP DP  RH WIND       PRES   REMARKS
ABERDEEN       CLEAR     58  55  90 SE7       29.96R
WATERTOWN      CLEAR     58  57  97 CALM      29.98R
BROOKINGS      CLEAR     57  55  93 SE6       29.99S
SISSETON         N/A     61  57  87 S8        29.97S
$$

SDZ017-020-022-023-036>040-048>070-220500-
SOUTHEAST SOUTH DAKOTA

CITY           SKY/WX    TMP DP  RH WIND       PRES   REMARKS
SIOUX FALLS    CLEAR     58  56  93 SE3       29.99R
HURON          CLEAR     59  55  87 SE8       29.95S
CHAMBERLAIN    CLEAR     62  57  83 SE6       29.94R
MITCHELL       CLEAR     61  56  83 SE9       29.96R
YANKTON        CLEAR     61  58  90 E5        29.98R
$$

ABBREVIATIONS USED IN REMARKS
   TC - TEMPERATURE IN CELSIUS
  WCI - WIND CHILL INDEX
   HX - HEAT INDEX
  VSB - VISIBILITY





USA.gov is the U.S. government's official web portal to all federal, state and local government web resources and services.